Location: Ostrava
(49.8330°N, 18.2830°E)
Time: 10:24:03
(UTC+02:00)

NOAA 19 - Visible Passes

Search period start: 30 May 2015 00:00
Search period end: 09 June 2015 00:00
Orbit: 843 x 862 km, 99.0° (Epoch: 29 May)

Date Brightness Start Highest point End Pass type
(mag) Time Alt. Az. Time Alt. Az. Time Alt. Az.
30 May 5.7 03:07:47 10° NNE 03:13:16 57° E 03:18:40 10° S visible
31 May 6.0 02:56:38 10° NNE 03:01:58 47° E 03:07:15 10° S visible
01 Jun 6.4 02:45:31 10° NNE 02:50:38 38° E 02:55:46 10° SSE visible
02 Jun 6.6 02:34:26 10° NNE 02:39:18 31° E 02:44:11 10° SSE visible
03 Jun 6.9 02:23:24 10° NE 02:27:56 26° E 02:32:31 10° SSE visible
04 Jun 7.2 02:12:28 10° NE 02:16:32 21° E 02:20:44 10° SE visible
04 Jun 5.3 03:52:21 10° N 03:57:51 68° WNW 04:03:18 10° SSW visible
05 Jun 7.4 02:01:37 10° NE 02:05:07 17° E 02:08:47 10° SE visible
05 Jun 5.3 03:41:05 10° NNE 03:46:38 82° WNW 03:52:07 10° SSW visible
06 Jun 7.5 01:50:59 10° NE 01:53:40 14° E 01:56:37 10° ESE visible
06 Jun 5.3 03:29:50 10° NNE 03:35:23 83° ESE 03:40:53 10° SSW visible
07 Jun 7.7 01:40:49 10° ENE 01:42:12 11° E 01:43:54 10° E visible
07 Jun 5.5 03:18:37 10° NNE 03:24:08 68° ESE 03:29:36 10° S visible
08 Jun 5.8 03:07:25 10° NNE 03:12:51 56° E 03:18:14 10° S visible
